World > North America > United States > Virginia

Richmond, Virginia Regional Weather

Lat: 37.48N, Lon: 77.47W
Wx Zone: VAZ096
Warning NWS WEATHER ALERT - (More Info. Click Here) Warning
Feedback

Richmond, VA Regional Weather

Expires:201909181400;;974215
ASUS41 KAKQ 181315
RWRAKQ

REGIONAL WEATHER ROUNDUP
NATIONAL WEATHER SERVICE WAKEFIELD VA
900 AM EDT WED SEP 18 2019

Note: "fair" indicates few or no clouds below 12,000 feet with no
significant weather and/or obstructions to visibility. * = Denotes
station may not report precipitation (e.g., rain,snow,etc.),
thunder or fog.


VAZ088>098-181400-
SOUTHEAST VIRGINIA
  
CITY           SKY/WX    TMP DP  RH WIND       PRES   REMARKS
NORFOLK        FAIR      72  56  57 NE18      30.13R                  
VIRGINIA BEACH FAIR      70  53  54 E21       30.12R                  
NORFOLK NAVAL  FAIR      71  55  56 NE15      30.15R                  
WEST POINT*    FAIR      68  59  73 NE5       30.19R                  
SALUDA*        FAIR      69  56  62 NE9       30.17R                  
NEWPORT NEWS   FAIR      70  55  59 NE10      30.15R                  
LANGLEY AFB    NOT AVBL                                               
FORT EUSTIS    MOSUNNY   71  52  51 NE8       30.14R                  
WILLIAMSBURG*  FAIR      64  63  94 CALM      30.17R                  
HR EXEC AP*    FAIR      69  56  62 VRB7      30.15R                  
FRANKLIN*      FAIR      65  63  93 CALM      30.16R                  
US460-WAKEFLD  FAIR      68  60  75 VRB3      30.16R                  
$$


SKY/WX - Weather  TMP - Temperature  DP - Dew Point  RH - Relative Humidity
WIND - Wind Direction/Speed PRES - Barometric Pressure VSB - Visibility
WCI - Wind Chill Index E13G22 Wind - East Wind 13 mph/Gusts of 22 mph